星链-36175(STARLINK-36175)

导读

STARLINK-36175是美国太空探索技术公司SpaceX星链星座的一员,于2025年12月10日发射入轨。作为星链互联网卫星星座的扩容卫星,它将与同系列卫星组网,为全球用户提供低 latency、高速率的卫星互联网接入服务,进一步完善星链系统的全球覆盖能力与服务容量,支撑消费端互联网连接以及特殊领域通信需求。

Basic Information
目录编号:
67012
目录名称:
STARLINK-36175
国际标识:
2025-293K
轨道中心:
EARTH
卫星名称:
星链-36175
卫星全名:
星链-36175(STARLINK-36175)
卫星状态:
在轨 (已飞行185 天)
发射日期:
2025-12-10 UTC
国别 :
美国 (US)
星等 :
--
Orbit Information
数据来源 国际轨道数据 AOE轨道数据
星历时间 2026-06-12T14:57:07+0800
1天前
查看轨道信息
2026-06-13T01:00:00+0800
14小时前
查看轨道信息
半长轴 6950.177km 6950.201km
偏心率 0.0003815 0.0004023
轨道倾角 70.001° 70.000°
近地点辐角 268.794° 272.537°
升交点赤经 216.107° 215.049°
平近点角 91.278° 185.159°
近地点 569.388km 569.267km
远地点 574.692km 574.861km
周期 96.107分钟 96.107分钟
每日圈数 14.983352 14.983274
Detailed Information
固有亮度:
5
最大亮度:
2.5
卫星平台:
Starlink V1.0
覆盖范围:
全球
运营商:
太空探索技术公司
运营商所在国:
美国
制造商(研发单位):
太空探索技术公司
制造商所在国:
美国
使用方式:
暂无
Satellite Introduction
Starlink 计划是 SpaceX 推出的全球卫星互联网项目,通过发射低轨道卫星,为全球尤其是偏远地区提供高速、低延迟的互联网服务。自 2019 年起,Starlink 已部署数千颗卫星,旨在缩小全球数字鸿沟,推动互联网普及。该项目还为军事、航空等行业提供通信支持,带来广泛经济效益。
2D Orbit Map
3D Orbit Map
Orbit Altitude Analysis Chart
Orbit Inclination Analysis Chart
Orbit Comprehensive Analysis Chart
View Comprehensive Chart